Вернуться в каталог

THORAD AGENA D DEB

АктивенSSO
NORAD 5150·DEBRIS·🇺🇸 United States

Запущен Apr 8, 1970 с Vandenberg Space Force Base

Loading…

Ближайшие Пролёты (ближайшие 24 часа)

TLE

СвежийSource: Space-Track

Эпоха: Sep 14, 2026, 05:23 UTC

1 05150U 70025JT  26257.22430612  .00001253  00000-0  93389-3 0  9993
2 05150  99.4665 344.8723 0088233 214.7142 144.8241 13.95096458822633

Отслеживайте THORAD AGENA D DEB в реальном времени с AllMySat

Download on the App Store